KUIPER-00521

导读

KUIPER-00521(NORAD编号68891)是亚马逊柯伊伯计划(Project Kuiper)低轨宽带星座中的一颗通信卫星,该计划旨在通过数千颗低轨卫星,为全球提供高速低延迟宽带互联网服务。这颗卫星随柯伊伯第二批卫星,于2025年6月23日由联合发射联盟Atlas V火箭,从佛罗里达州卡纳维拉尔角发射升空,部署在近地轨道,承担宽带通信测试与组网运营任务,助力柯伊伯系统完成全球网络覆盖目标,与Starlink等低轨星座竞争全球卫星互联网市场。

基本信息
目录编号:
68891
目录名称:
KUIPER-00521
国际标识:
2026-095AD
轨道中心:
EARTH
卫星名称:
KUIPER-00521
卫星全名:
KUIPER-00521
卫星状态:
在轨 (已飞行136 天)
发射日期:
2026-04-28 UTC
国别 :
美国 (US)
星等 :
--
该卫星已列入 空间交会检测服务 Space Conjunction Data Service (SCDS) ,当前飞行风险评估等级: 无高风险
轨道信息
数据来源 国际轨道数据 AOE轨道数据
星历时间 2026-09-11T14:39:56+0800
8小时前
查看轨道信息
2026-09-09T22:00:00+0800
2天前
查看轨道信息
半长轴 7007.725km 7007.716km
偏心率 0.0000934 0.000098
轨道倾角 51.901° 51.902°
近地点辐角 83.927° 34.213°
升交点赤经 211.236° 218.730°
平近点角 276.179° 293.160°
近地点 628.933km 628.892km
远地点 630.243km 630.266km
周期 97.303分钟 97.303分钟
每日圈数 14.799165 14.799193
详细信息
使用方式:
暂无
2D轨道图
3D轨道图
轨道高度分析图
轨道倾角分析图
轨道综合分析图
查看轨道综合分析图
交会数据列表
事件ID 空间交会对象 最接近时刻(TCA) 交会距离 交会风险概率(CRP) 交会风险指数(CRI) 操作
CDM_260913-020103-679506-889121
2026-09-13T
02:01:35+0000
2.449 km
极远距离
1.605501E-6 低风险 0.39
CDM_260912-091703-306406-889121
2026-09-12T
09:17:22+0000
2.661 km
极远距离
1.332023E-6 低风险 0.37
与全量物体交会距离演化趋势
与全量物体交会风险概率演化趋势